TimeEDT,TemperatureF,Dew PointF,Humidity,Sea Level PressureIn,VisibilityMPH,Wind Direction,Wind SpeedMPH,Gust SpeedMPH,PrecipitationIn,Events,Conditions,WindDirDegrees,DateUTC
12:53 AM,41.0,33.1,73,29.91,10.0,WSW,9.2,-,N/A,,Partly Cloudy,250,2013-05-12 04:53:00
1:53 AM,39.9,33.1,77,29.92,10.0,WSW,9.2,-,N/A,,Clear,250,2013-05-12 05:53:00
2:53 AM,39.0,32.0,76,29.90,10.0,SW,10.4,-,N/A,,Clear,230,2013-05-12 06:53:00
3:53 AM,39.9,32.0,73,29.90,10.0,West,12.7,-,N/A,,Clear,260,2013-05-12 07:53:00
4:53 AM,39.0,32.0,76,29.88,10.0,WSW,9.2,-,N/A,,Clear,240,2013-05-12 08:53:00
5:53 AM,39.9,30.9,70,29.89,10.0,West,15.0,-,N/A,,Partly Cloudy,260,2013-05-12 09:53:00
6:42 AM,41.0,30.2,65,29.89,10.0,West,13.8,-,N/A,,Mostly Cloudy,280,2013-05-12 10:42:00
6:53 AM,41.0,30.0,65,29.90,10.0,West,19.6,23.0,N/A,,Overcast,280,2013-05-12 10:53:00
7:31 AM,41.0,28.4,61,29.90,10.0,WNW,20.7,29.9,N/A,,Mostly Cloudy,300,2013-05-12 11:31:00
7:53 AM,43.0,28.0,56,29.91,10.0,WNW,20.7,26.5,N/A,,Mostly Cloudy,290,2013-05-12 11:53:00
8:53 AM,43.0,28.0,56,29.93,10.0,NW,23.0,28.8,N/A,,Overcast,310,2013-05-12 12:53:00
9:53 AM,44.1,27.0,51,29.95,10.0,WNW,24.2,36.8,N/A,,Overcast,300,2013-05-12 13:53:00
10:53 AM,46.9,27.0,46,29.95,10.0,West,24.2,29.9,N/A,,Mostly Cloudy,280,2013-05-12 14:53:00
11:53 AM,48.0,28.0,46,29.96,10.0,WNW,16.1,28.8,N/A,,Overcast,290,2013-05-12 15:53:00
12:53 PM,48.9,28.0,44,29.96,10.0,West,18.4,25.3,N/A,,Overcast,270,2013-05-12 16:53:00
1:53 PM,50.0,27.0,41,29.97,10.0,WNW,18.4,28.8,N/A,,Mostly Cloudy,290,2013-05-12 17:53:00
2:53 PM,51.1,27.0,39,29.97,10.0,WNW,19.6,25.3,N/A,,Overcast,300,2013-05-12 18:53:00
3:53 PM,51.1,26.1,38,29.98,10.0,WNW,21.9,33.4,N/A,,Overcast,290,2013-05-12 19:53:00
4:53 PM,48.9,27.0,43,30.00,10.0,West,26.5,33.4,N/A,,Overcast,270,2013-05-12 20:53:00
5:53 PM,48.0,26.1,42,30.02,10.0,WNW,21.9,31.1,N/A,,Overcast,290,2013-05-12 21:53:00
6:53 PM,46.9,25.0,42,30.04,10.0,WNW,18.4,27.6,N/A,,Overcast,290,2013-05-12 22:53:00
7:53 PM,46.0,23.0,40,30.05,10.0,WNW,16.1,26.5,N/A,,Overcast,290,2013-05-12 23:53:00
8:53 PM,44.1,26.1,49,30.07,10.0,NW,12.7,-,N/A,,Overcast,320,2013-05-13 00:53:00
9:53 PM,39.0,26.1,60,30.09,10.0,NNW,5.8,-,N/A,,Clear,330,2013-05-13 01:53:00
10:53 PM,37.0,25.0,62,30.10,10.0,NW,6.9,-,N/A,,Clear,310,2013-05-13 02:53:00
11:53 PM,39.0,24.1,55,30.10,10.0,WSW,3.5,-,N/A,,Clear,240,2013-05-13 03:53:00